[Iaude] MPEC R112: 2023 RL3 [a=2.79,e=0.61,i=21.9,H=21.8]
    mpec at marsden.cfa.harvard.edu 
    mpec at marsden.cfa.harvard.edu
       
    Sun Sep 10 18:15:47 EDT 2023
    
    
  
M.P.E.C. 2023-R112                           Issued 2023 September 10, 22:14 UT
     The Minor Planet Electronic Circulars contain information on unusual
         minor planets, routine data on comets and natural satellites,
         and occasional editorial announcements.  They are published
    on behalf of Division F of the International Astronomical Union by the
          Minor Planet Center, Smithsonian Astrophysical Observatory,
                          Cambridge, MA 02138, U.S.A.
			  
             Prepared using the Tamkin Foundation Computer Network
                              MPC at CFA.HARVARD.EDU
            URL https://www.minorplanetcenter.net/    ISSN 1523-6714
                                    2023 RL3                                    
Observations:
     K23R03L KC2023 09 07.91237022 41 30.31 +09 18 56.5          20.2 RoER112K88
     K23R03L KC2023 09 07.91434922 41 29.98 +09 19 07.2          20.2 RoER112K88
     K23R03L KC2023 09 07.91682322 41 29.60 +09 19 21.0          19.8 RoER112K88
     K23R03L*KC2023 09 09.86996 22 35 43.96 +12 14 28.4          19.9 GXER112L51
     K23R03L KC2023 09 09.87153 22 35 43.67 +12 14 37.6          19.8 GXER112L51
     K23R03L KC2023 09 09.87311 22 35 43.38 +12 14 45.8          19.7 GXER112L51
     K23R03L KC2023 09 09.91293 22 35 35.69 +12 18 24.9          19.8 GXER112L51
     K23R03L KC2023 09 09.91593 22 35 35.10 +12 18 41.0          19.9 GXER112L51
     K23R03L KC2023 09 09.91891 22 35 34.50 +12 18 57.1          19.9 GXER112L51
     K23R03L 1C2023 09 09.92500 22 35 33.94 +12 19 28.0          20.3 VXER112033
     K23R03L 1C2023 09 09.92540 22 35 33.87 +12 19 30.2          20.2 VXER112033
     K23R03L 1C2023 09 09.92580 22 35 33.80 +12 19 32.3          20.5 VXER112033
     K23R03L 1C2023 09 09.94422 22 35 29.48 +12 21 15.7          19.8 GVER112C40
     K23R03L KC2023 09 09.94570422 35 29.94 +12 21 24.2          20.3 GVER112L01
     K23R03L 1C2023 09 09.94639 22 35 29.08 +12 21 27.4          19.9 GVER112C40
     K23R03L KC2023 09 09.94696722 35 29.68 +12 21 31.1          20.7 GVER112L01
     K23R03L KC2023 09 09.94844322 35 29.38 +12 21 39.5          19.7 GVER112L01
     K23R03L 1C2023 09 09.94910 22 35 28.56 +12 21 42.2          19.9 GVER112C40
     K23R03L 1C2023 09 09.96390 22 35 25.76 +12 23 04.1          19.8 GVER112C40
     K23R03L 1C2023 09 09.97040 22 35 24.50 +12 23 39.3          19.7 GVER112C40
     K23R03L KC2023 09 09.97979922 35 23.39 +12 24 32.6          20.2 GVER112104
     K23R03L 1C2023 09 09.97984 22 35 22.68 +12 24 31.4          19.8 GVER112C40
     K23R03L 1C2023 09 09.98452 22 35 21.81 +12 24 57.1          19.9 GVER112C40
     K23R03L KC2023 09 09.98767622 35 21.90 +12 25 15.2          20.1 GVER112104
     K23R03L KC2023 09 09.99292622 35 20.85 +12 25 44.4          19.9 GVER112104
     K23R03L 1C2023 09 09.99535 22 35 19.76 +12 25 56.4          19.9 GVER112C40
     K23R03L 1C2023 09 10.01039 22 35 16.89 +12 27 18.5          19.9 GVER112C40
     K23R03L KC2023 09 10.01392 22 35 16.88 +12 27 39.5                VER112204
     K23R03L KC2023 09 10.02732 22 35 14.28 +12 28 53.5                VER112204
     K23R03L KC2023 09 10.03687 22 35 12.45 +12 29 45.8          20.3 GVER112204
     K23R03L KC2023 09 10.73428 22 33 04.72 +13 34 17.4          20.0 GXER112L51
     K23R03L KC2023 09 10.73615 22 33 04.38 +13 34 28.5          20.4 GXER112L51
     K23R03L KC2023 09 10.73810 22 33 03.96 +13 34 39.9          20.1 GXER112L51
     K23R03L KB2023 09 10.78452 22 32 55.22 +13 38 57.6          20.2 RZER112106
     K23R03L KB2023 09 10.79031 22 32 54.12 +13 39 30.6          20.2 RZER112106
     K23R03L KB2023 09 10.79639 22 32 52.93 +13 40 04.2          19.9 RZER112106
     K23R03L 1C2023 09 10.80206 22 32 51.76 +13 40 33.9          20.6 VXER112033
     K23R03L KB2023 09 10.80234 22 32 51.76 +13 40 37.7          19.9 RZER112106
     K23R03L 1C2023 09 10.80263 22 32 51.64 +13 40 37.3          20.5 VXER112033
     K23R03L 1C2023 09 10.80321 22 32 51.53 +13 40 40.5          20.4 VXER112033
     K23R03L 1C2023 09 10.81229822 32 49.770+13 41 39.30               VER112246
     K23R03L 1C2023 09 10.81255822 32 49.380+13 41 39.30               VER112246
     K23R03L 1C2023 09 10.81797622 32 48.570+13 42 11.80         19.9 GVER112246
     K23R03L KC2023 09 10.82475522 32 47.41 +13 42 44.4          19.7 GXER112595
     K23R03L KC2023 09 10.84125322 32 44.17 +13 44 16.2          19.9 GXER112595
     K23R03L KC2023 09 10.85091222 32 42.34 +13 45 10.3          20.1 GVER112L06
     K23R03L KC2023 09 10.85425822 32 41.60 +13 45 29.2                XER112595
     K23R03L KC2023 09 10.85468022 32 41.57 +13 45 31.5          20.0 GVER112L06
     K23R03L KC2023 09 10.85703622 32 41.08 +13 45 44.5          20.1 GVER112L06
Observer details:
033 Karl Schwarzschild Observatory, Tautenburg.  Observers S. Melnikov, C.
    Hoegner, F. Ludwig, M. Hartmann, B. Stecklum.  Measurer B. Stecklum.
    1.34-m f/3 Schmidt + CCD.
104 San Marcello Pistoiese.  Observers P. Bacci, M. Maestripieri.  Measurers
    P. Bacci, L. Tesi, G. Fagioli.  0.60-m F4 Reflector + CCD.
106 Crni Vrh.  Observer H. Mikuz.  0.60-m f/3.3 reflector + CMO.
204 Schiaparelli Observatory.  Observers L. Buzzi, G. Galli.  0.84-m f/3.5
    reflector + CCD.
246 Klet Observatory-KLENOT.  Observers M. Tichy, J. Ticha, M. Janda, M.
    Honkova.  Measurer M. Tichy.  1.06-m f/2.7 Reflector + 2048x2048 CCD.
595 Farra d'Isonzo.  Observer E. Pettarin.  0.61-m f/4.5 reflector + CCD.
C40 Kuban State University Astrophysical Observatory.  Observers A. Ivanov, A.
    Barcov, V. Ivanov, V. Lysenko, N. Yakovenko, N. Ivanova, N. Gorbunov, G.
    Kurbatov, P. Shchukin, V. Roshchupko.  Measurer A. Ivanov.  0.51-m f/8
    reflector + CCD.
K88 GINOP-KHK, Piszkesteto.  Observer K. Sarneczky.  0.60-m Schmidt + CCD.
L01 Visnjan Observatory, Tican.  Observer K. Korlevic.  1.0-m f/2.9 reflector
    + CCD.
L06 Sormano 2 Observatory, Bellagio Via Lattea.  Observer G. Ventre.  Measurer
    P. Sicoli.  0.36m Schmidt Cassegrain + CCD.
L51 MARGO, Nauchnyi.  Observer G. Borisov.  0.50-m f/1.9 reflector + CCD.
Orbital elements:
2023 RL3                                                 Earth MOID = 0.2419 AU
Epoch 2023 Sept. 13.0 TT = JDT 2460200.5                Veres                   
M 349.98929              (2000.0)            P               Q                  
n   0.21158403     Peri.   60.94633     +0.77144527     -0.61818958             
a   2.7892073      Node   336.21081     +0.37109422     +0.62951629             
e   0.6087604      Incl.   21.93950     +0.51687646     +0.47069192             
P   4.66           H   21.81          G   0.15           U   9                  
Residuals in seconds of arc
230907 K88  0.6-  0.5-    230909 C40  0.5-  0.2-    230910 106  0.1+  0.1+
230907 K88  0.2-  0.2-    230909 C40  0.1+  0.5+    230910 106  0.1+  0.5-
230907 K88  0.8+  0.6+    230909 C40  0.1-  0.0     230910 033  0.2+  0.3-
230909 L51  0.5-  0.5+    230909 104  0.0   0.1+    230910 106  0.0   0.4-
230909 L51  0.3-  1.1+    230909 C40  0.3-  0.3+    230910 033  0.1+  0.0
230909 L51  0.1-  0.6+    230909 C40  0.0   0.3+    230910 033  0.1+  0.1-
230909 L51  0.0   0.9+    230909 104  0.5+  0.6-    230910 246  0.3+  6.5+
230909 L51  0.2-  0.5+    230909 104  0.1-  0.3-    230910 246  4.6-  5.1+
230909 L51  0.5-  0.2+    230909 C40  0.3+  0.2+    230910 246  1.0-  7.1+
230909 033  0.3-  0.4+    230910 C40  0.2+  0.3-    230910 595  0.5+  0.3+
230909 033  0.2-  0.4+    230910 204  0.2+  0.1+    230910 595  0.7+  0.6-
230909 033  0.1-  0.3+    230910 204  0.0   0.4+    230910 L06  0.4+  0.6-
230909 C40  0.8-  0.1+    230910 204  0.1+  0.2+    230910 595  0.7+  0.7-
230909 L01  0.3+  0.0     230910 L51  0.3+  0.3-    230910 L06  0.0   0.6-
230909 C40  0.5-  0.1-    230910 L51  0.6+  0.3+    230910 L06  0.4-  0.8-
230909 L01  0.1+  0.1-    230910 L51  0.0   0.8+
230909 L01  0.1-  0.2+    230910 106  0.3-  0.3-
Ephemeris:
2023 RL3                 a,e,i = 2.79, 0.61, 22                  q = 1.0912
Date    TT    R. A. (2000) Decl.     Delta      r    Elong.  Phase     V
2023 08 11    23 24 22.4 -16 08 31   0.4985  1.4677   150.3    20.0    22.1
...
2023 08 26    23 09 49.3 -06 02 33   0.3561  1.3591   166.1    10.3    20.9
...
2023 09 03    22 54 14.3 +02 38 00   0.3004  1.3053   169.3     8.2    20.4
...
2023 09 09    22 38 20.9 +10 55 44   0.2704  1.2673   161.9    14.3    20.3
2023 09 10    22 35 20.2 +12 26 37   0.2666  1.2613   160.2    15.7    20.3
2023 09 11    22 32 13.3 +13 59 21   0.2630  1.2552   158.4    17.2    20.3
...
2023 09 17    22 11 28.2 +23 41 31   0.2488  1.2208   146.6    27.0    20.4
...
2023 09 25    21 39 06.9 +36 27 13   0.2479  1.1799   130.7    40.1    20.7
...
2023 10 10    20 31 26.6 +54 21 10   0.2845  1.1218   108.4    57.6    21.4
M. P. C. Staff               (C) Copyright 2023 MPC           M.P.E.C. 2023-R112
    
    
More information about the Iaude
mailing list